Baker, OR

6:27 PM PDT on October 16, 2017 (GMT -0700)
Baker City Municipal

Weather History for KBKE - February, 2013

Change the Weather History Date:

Saturday, February 23, 2013

  Actual Average Record
Temperature  
Mean Temperature 32 °F 32 °F  
Max Temperature 38 °F 43 °F 66 °F (1995)
Min Temperature 25 °F 20 °F 7 °F (1975)
Degree Days  
Heating Degree Days 33 33  
Month to date heating degree days 769 833  
Since 1 July heating degree days 5222 5356  
Cooling Degree Days 0 0  
Month to date cooling degree days 0 0  
Year to date cooling degree days 0 0  
Moisture  
Dew Point 23 °F    
Average Humidity 69    
Maximum Humidity 75    
Minimum Humidity 63    
Precipitation  
Precipitation 0.01 in 0.02 in 0.32 in (1986)
Month to date precipitation 0.28 0.47  
Year to date precipitation 1.12 1.27  
Sea Level Pressure  
Sea Level Pressure 30.05 in    
Wind  
Wind Speed 12 mph (NW)    
Max Wind Speed 25 mph    
Max Gust Speed 32 mph    
Visibility 9 miles    
Events Snow    
T = Trace of Precipitation, MM = Missing Value Source: NWS Daily Summary

Daily Weather History Graph

Daily Weather History Graph

Search for Another Location

Airport or City:

Trip Planner

Search our weather history database for the weather conditions in past years. The results will help you decide how hot, cold, wet, or windy it might be!

Date:

Astronomy

Feb. 23, 2013 Rise Set
Actual Time 6:38 AM PST 5:31 PM PST
Civil Twilight 6:08 AM PST 6:00 PM PST
Nautical Twilight 5:35 AM PST 6:34 PM PST
Astronomical Twilight 5:01 AM PST 7:08 PM PST
Moon 3:43 PM PST (2/23) 5:07 AM PST (2/23)
Length of Visible Light 11h 51m
Length of Day
10h 52m
Waxing Gibbous, 96% of the Moon is Illuminated
Feb 23
Waxing Gibbous
Feb 25
Full
Mar 4
Last Quarter
Mar 11
New
Mar 19
First Quarter

Hourly Weather History & Observations

Time (PST) Temp. Windchill Dew Point Humidity Pressure Visibility Wind Dir Wind Speed Gust Speed Precip Events Conditions
12:01 AM 30.2 °F 17.8 °F 28.4 °F 93% 29.81 in 4.0 mi NNW 19.6 mph - 0.00 in Snow Light Snow
12:08 AM 30.2 °F 16.8 °F 28.4 °F 93% 29.82 in 1.8 mi NW 23.0 mph 29.9 mph 0.00 in Snow Light Snow
12:16 AM 30.2 °F 19.8 °F 28.4 °F 93% 29.83 in 1.0 mi NW 13.8 mph - 0.01 in Snow Light Snow
12:26 AM 30.2 °F 21.3 °F 28.4 °F 93% 29.82 in 3.0 mi NNW 10.4 mph - 0.01 in Snow Light Snow
12:46 AM 30.2 °F 23.4 °F 26.6 °F 86% 29.82 in 9.0 mi WNW 6.9 mph - 0.01 in   Overcast
12:53 AM 30.0 °F 22.4 °F 25.0 °F 82% 29.88 in 10.0 mi NNW 8.1 mph - 0.01 in   Overcast
1:53 AM 30.0 °F 16.9 °F 21.9 °F 72% 29.89 in 10.0 mi NW 21.9 mph 28.8 mph N/A   Mostly Cloudy
2:53 AM 28.0 °F 18.1 °F 19.0 °F 69% 29.91 in 10.0 mi NW 11.5 mph - N/A   Partly Cloudy
3:53 AM 26.1 °F 14.0 °F 18.0 °F 71% 29.94 in 10.0 mi NNW 15.0 mph - N/A   Partly Cloudy
4:53 AM 26.1 °F 13.6 °F 17.1 °F 69% 29.96 in 10.0 mi NNW 16.1 mph - N/A   Clear
5:53 AM 28.0 °F 16.5 °F 18.0 °F 66% 29.99 in 10.0 mi NW 15.0 mph 28.8 mph N/A   Scattered Clouds
6:53 AM 26.1 °F 19.4 °F 18.0 °F 71% 30.01 in 10.0 mi WNW 5.8 mph - N/A   Mostly Cloudy
7:53 AM 28.9 °F 20.4 °F 21.0 °F 72% 30.03 in 10.0 mi NNW 9.2 mph - N/A   Overcast
8:53 AM 28.9 °F 22.8 °F 21.0 °F 72% 30.05 in 10.0 mi Variable 5.8 mph - N/A   Scattered Clouds
9:53 AM 30.0 °F 24.1 °F 21.9 °F 72% 30.07 in 10.0 mi South 5.8 mph - N/A   Overcast
10:53 AM 33.1 °F 30.0 °F 25.0 °F 72% 30.08 in 10.0 mi ENE 3.5 mph - N/A   Mostly Cloudy
11:53 AM 35.1 °F 30.1 °F 27.0 °F 72% 30.08 in 10.0 mi WNW 5.8 mph - N/A   Partly Cloudy
12:53 PM 37.0 °F 28.1 °F 27.0 °F 67% 30.07 in 10.0 mi NW 15.0 mph - N/A   Mostly Cloudy
1:53 PM 35.1 °F 24.8 °F 25.0 °F 67% 30.09 in 10.0 mi NW 17.3 mph - N/A   Mostly Cloudy
2:53 PM 36.0 °F 24.2 °F 25.0 °F 64% 30.10 in 10.0 mi NW 24.2 mph 32.2 mph N/A   Mostly Cloudy
3:53 PM 36.0 °F 25.6 °F 26.1 °F 67% 30.13 in 10.0 mi NNW 18.4 mph - N/A   Partly Cloudy
4:53 PM 33.1 °F 22.2 °F 25.0 °F 72% 30.16 in 10.0 mi NNW 17.3 mph 26.5 mph N/A   Mostly Cloudy
5:53 PM 32.0 °F 20.5 °F 24.1 °F 73% 30.18 in 10.0 mi NW 18.4 mph 26.5 mph N/A   Mostly Cloudy
6:53 PM 32.0 °F 19.8 °F 24.1 °F 73% 30.22 in 10.0 mi NNW 20.7 mph 25.3 mph N/A   Overcast
7:53 PM 30.9 °F 20.2 °F 24.1 °F 76% 30.24 in 9.0 mi NNW 15.0 mph - 0.00 in Snow Light Snow
8:53 PM 28.9 °F - 23.0 °F 78% 30.28 in 10.0 mi Calm Calm - 0.00 in   Mostly Cloudy
9:53 PM 28.9 °F 21.1 °F 21.9 °F 75% 30.29 in 10.0 mi NNW 8.1 mph - N/A   Mostly Cloudy
10:53 PM 28.9 °F 22.8 °F 21.9 °F 75% 30.31 in 10.0 mi West 5.8 mph - N/A   Overcast
11:53 PM 27.0 °F - 21.0 °F 78% 30.32 in 10.0 mi Calm Calm - N/A   Overcast